Weather History for Shreveport, LA

Change the Weather History Date:

Friday, December 14, 2012

  Actual Average Record
Temperature  
Mean Temperature 45 °F 48 °F  
Max Temperature 59 °F 58 °F 81 °F (1975)
Min Temperature 31 °F 38 °F 18 °F (1985)
Degree Days  
Heating Degree Days 20 17  
Month to date heating degree days 127 221  
Since 1 July heating degree days 487 592  
Cooling Degree Days 0 0  
Month to date cooling degree days 20 0  
Year to date cooling degree days 2954 2474  
Moisture  
Dew Point 38 °F    
Average Humidity 65    
Maximum Humidity 92    
Minimum Humidity 37    
Precipitation  
Precipitation 0.01 in 0.15 in 2.83 in (1982)
Month to date precipitation 0.46 2.24  
Year to date precipitation 46.48 48.88  
Snow  
Snow 0.00 in - - ()
Month to date snowfall 0.0  
Since 1 July snowfall 0.0  
Snow Depth 0.00 in    
Sea Level Pressure  
Sea Level Pressure 30.13 in    
Wind  
Wind Speed 6 mph (SE)    
Max Wind Speed 18 mph    
Max Gust Speed 22 mph    
Visibility 10 miles    
Events Rain    
T = Trace of Precipitation, MM = Missing Value Source: NWS Daily Summary

Daily Weather History Graph

Daily Weather History Graph

Search for Another Location

Airport:

Trip Planner

Search our weather history database for the weather conditions in past years. The results will help you decide how hot, cold, wet, or windy it might be!

Date:

Astronomy

Dec. 14, 2012 Rise Set
Actual Time 7:09 AM CST 5:11 PM CST
Civil Twilight 6:41 AM CST 5:38 PM CST
Nautical Twilight 6:11 AM CST 6:09 PM CST
Astronomical Twilight 5:41 AM CST 6:39 PM CST
Moon 8:17 AM CST (12/14) 7:01 PM CST (12/14)
Length of Visible Light 10h 56m
Length of Day
10h 02m
Waxing Crescent, 3% of the Moon is Illuminated
Dec 14
Waxing Crescent
Dec 19
First Quarter
Dec 28
Full
Jan 4
Last Quarter
Jan 11
New

Hourly Weather History & Observations

Time (CST) Temp. Windchill Dew Point Humidity Pressure Visibility Wind Dir Wind Speed Gust Speed Precip Events Conditions
12:56 AM 34.0 °F - 28.9 °F 82% 30.26 in 10.0 mi Calm Calm - N/A   Scattered Clouds
1:56 AM 33.1 °F - 28.0 °F 82% 30.23 in 10.0 mi Calm Calm - N/A   Scattered Clouds
2:56 AM 30.9 °F - 27.0 °F 85% 30.23 in 10.0 mi Calm Calm - N/A   Scattered Clouds
3:56 AM 32.0 °F - 28.0 °F 85% 30.23 in 10.0 mi Calm Calm - N/A   Scattered Clouds
4:56 AM 32.0 °F - 28.9 °F 88% 30.21 in 10.0 mi Calm Calm - N/A   Scattered Clouds
5:56 AM 33.1 °F - 28.9 °F 85% 30.24 in 10.0 mi Calm Calm - N/A   Scattered Clouds
6:56 AM 32.0 °F - 28.0 °F 85% 30.25 in 10.0 mi Calm Calm - N/A   Mostly Cloudy
7:56 AM 35.1 °F - 33.1 °F 92% 30.25 in 10.0 mi Calm Calm - N/A   Mostly Cloudy
8:56 AM 43.0 °F 40.3 °F 34.0 °F 71% 30.24 in 10.0 mi SE 4.6 mph - N/A   Mostly Cloudy
9:56 AM 51.1 °F - 33.1 °F 50% 30.25 in 10.0 mi SSE 5.8 mph - N/A   Mostly Cloudy
10:56 AM 55.0 °F - 34.0 °F 45% 30.23 in 10.0 mi SE 5.8 mph - N/A   Overcast
11:56 AM 59.0 °F - 33.8 °F 39% 30.19 in 10.0 mi SSE 11.5 mph - N/A   Mostly Cloudy
12:56 PM 59.0 °F - 35.1 °F 41% 30.14 in 10.0 mi SE 10.4 mph - N/A   Mostly Cloudy
1:56 PM 59.0 °F - 36.0 °F 42% 30.10 in 10.0 mi SE 10.4 mph - N/A   Overcast
2:56 PM 57.0 °F - 39.0 °F 51% 30.07 in 10.0 mi SE 6.9 mph - 0.00 in Rain Light Rain
3:56 PM 57.0 °F - 39.9 °F 53% 30.05 in 7.0 mi ESE 8.1 mph - 0.00 in   Overcast
4:56 PM 55.9 °F - 39.9 °F 55% 30.04 in 10.0 mi ESE 5.8 mph - 0.00 in Rain Light Rain
5:56 PM 55.0 °F - 42.1 °F 62% 30.02 in 10.0 mi ESE 5.8 mph - 0.00 in Rain Light Rain
6:56 PM 55.9 °F - 42.1 °F 60% 30.01 in 10.0 mi SE 9.2 mph - 0.00 in   Overcast
7:56 PM 57.2 °F - 44.6 °F 63% 30.02 in 10.0 mi SE 10.4 mph - N/A   Overcast
8:56 PM 55.9 °F - 48.9 °F 77% 30.00 in 10.0 mi SSE 6.9 mph - 0.01 in   Overcast
9:36 PM 57.2 °F - 48.2 °F 72% 30.01 in 10.0 mi SSE 5.8 mph - N/A   Overcast
9:56 PM 57.0 °F - 50.0 °F 77% 29.99 in 10.0 mi SSE 9.2 mph - N/A   Overcast
10:56 PM 57.9 °F - 52.0 °F 81% 29.97 in 10.0 mi SSE 10.4 mph - N/A   Mostly Cloudy
11:56 PM 57.2 °F - 53.6 °F 88% 29.97 in 10.0 mi SSE 6.9 mph - N/A   Overcast